Weather History for PAMR - November, 2011

Change the Weather History Date:

Thursday, November 17, 2011

  Actual Average Record
Temperature  
Mean Temperature 14 °F -  
Max Temperature 18 °F 27 °F 48 °F (2000)
Min Temperature 9 °F 17 °F -5 °F (2003)
Degree Days  
Heating Degree Days 51    
Moisture  
Dew Point -5 °F    
Average Humidity 44    
Maximum Humidity 53    
Minimum Humidity 37    
Precipitation  
Precipitation 0.00 in - - ()
Sea Level Pressure  
Sea Level Pressure 30.04 in    
Wind  
Wind Speed 13 mph (North)    
Max Wind Speed 24 mph    
Max Gust Speed 36 mph    
Visibility 10 miles    
Events      
Averages and records for this station are not official NWS values.
T = Trace of Precipitation, MM = Missing Value Source: NWS Daily Summary

Daily Weather History Graph

Daily Weather History Graph

Search for Another Location

Airport or City:

Trip Planner

Search our weather history database for the weather conditions in past years. The results will help you decide how hot, cold, wet, or windy it might be!

Date:

Astronomy

Nov. 17, 2011 Rise Set
Actual Time 9:10 AM AKST 4:17 PM AKST
Civil Twilight 8:18 AM AKST 5:09 PM AKST
Nautical Twilight 7:23 AM AKST 6:04 PM AKST
Astronomical Twilight 6:32 AM AKST 6:55 PM AKST
Moon 11:33 PM AKST (11/17) 1:48 PM AKST (11/17)
Length of Visible Light 8h 51m
Length of Day
7h 06m
Waning Gibbous, 58% of the Moon is Illuminated
Nov 17
Waning Gibbous
Nov 18
Last Quarter
Nov 24
New
Dec 2
First Quarter
Dec 10
Full

Hourly Weather History & Observations

Time (AKST) Temp. Windchill Dew Point Humidity Pressure Visibility Wind Dir Wind Speed Gust Speed Precip Events Conditions
12:11 AM 12.2 °F -6.7 °F -7.6 °F 41% 29.89 in 10.0 mi NNW 21.9 mph 33.4 mph N/A   Clear
12:53 AM 12.0 °F -7.7 °F -8.0 °F 41% 29.90 in 10.0 mi NNW 24.2 mph 35.7 mph N/A   Clear
1:53 AM 12.0 °F -5.6 °F -8.0 °F 41% 29.91 in 10.0 mi NNW 18.4 mph 29.9 mph N/A   Clear
3:53 AM 12.0 °F -5.6 °F -7.1 °F 42% 29.93 in 10.0 mi NNW 18.4 mph 28.8 mph N/A   Clear
4:53 AM 12.9 °F -2.2 °F -7.1 °F 41% 29.94 in 10.0 mi NNW 13.8 mph 23.0 mph N/A   Clear
5:53 AM 12.9 °F -1.6 °F -7.1 °F 41% 29.96 in 10.0 mi NW 12.7 mph 18.4 mph N/A   Clear
6:53 AM 12.9 °F 2.6 °F -6.0 °F 43% 29.98 in 10.0 mi North 6.9 mph - N/A   Clear
7:53 AM 12.9 °F 3.8 °F -6.0 °F 43% 29.99 in 10.0 mi NNE 5.8 mph - N/A   Clear
8:53 AM 12.9 °F 2.6 °F -5.1 °F 45% 30.01 in 10.0 mi NNW 6.9 mph - N/A   Clear
9:53 AM 12.9 °F -1.6 °F -5.1 °F 45% 30.03 in 10.0 mi NNW 12.7 mph 18.4 mph N/A   Clear
10:53 AM 14.0 °F - -4.0 °F 45% 30.05 in 10.0 mi Calm Calm - N/A   Clear
11:53 AM 12.0 °F - -2.9 °F 51% 30.07 in 10.0 mi Calm Calm - N/A   Clear
12:53 PM 15.1 °F 9.4 °F -2.9 °F 45% 30.07 in 10.0 mi East 3.5 mph - N/A   Clear
1:53 PM 16.0 °F 10.4 °F -4.0 °F 41% 30.09 in 10.0 mi ESE 3.5 mph - N/A   Clear
2:53 PM 15.1 °F - -2.9 °F 45% 30.09 in 10.0 mi Calm Calm - N/A   Clear
3:53 PM 18.0 °F 6.9 °F -4.0 °F 38% 30.11 in 10.0 mi NNE 9.2 mph - N/A   Clear
4:53 PM 17.1 °F 11.7 °F -5.1 °F 37% 30.12 in 10.0 mi NNE 3.5 mph - N/A   Clear
5:53 PM 15.1 °F 3.3 °F -4.0 °F 43% 30.12 in 10.0 mi NNE 9.2 mph - N/A   Clear
6:53 PM 15.1 °F 2.5 °F -5.1 °F 41% 30.09 in 10.0 mi North 10.4 mph 18.4 mph N/A   Clear
7:53 PM 12.9 °F - -2.9 °F 49% 30.09 in 10.0 mi North - - N/A   Clear
8:53 PM 12.0 °F - -4.0 °F 49% 30.12 in 10.0 mi North - - N/A   Clear
9:53 PM 10.9 °F - -5.1 °F 49% 30.12 in 10.0 mi Calm Calm - N/A   Clear
10:53 PM 12.0 °F 0.5 °F -4.0 °F 49% 30.10 in 10.0 mi NNW 8.1 mph - N/A   Clear
11:53 PM 9.0 °F - -5.1 °F 53% 30.10 in 10.0 mi Calm Calm - N/A   Clear